Norwood, MA

6:36 AM EDT on March 25, 2017 (GMT -0400)
Norwood Memorial

Weather History for KOWD - October, 2011

Change the Weather History Date:

Monday, October 10, 2011

  Actual Average Record
Temperature  
Mean Temperature 65 °F -  
Max Temperature 84 °F 62 °F 84 °F (2011)
Min Temperature 46 °F 38 °F 30 °F (2014)
Growing Degree Days 15 (Base 50)    
Moisture  
Dew Point 50 °F    
Average Humidity 81    
Maximum Humidity 100    
Minimum Humidity 39    
Precipitation  
Precipitation 0.00 in - - ()
Sea Level Pressure  
Sea Level Pressure 30.17 in    
Wind  
Wind Speed 1 mph (WNW)    
Max Wind Speed 9 mph    
Max Gust Speed -    
Visibility 5 miles    
Events Fog    
Averages and records for this station are not official NWS values.
T = Trace of Precipitation, MM = Missing Value Source: NWS Daily Summary

Daily Weather History Graph

Daily Weather History Graph

Search for Another Location

Airport or City:

Trip Planner

Search our weather history database for the weather conditions in past years. The results will help you decide how hot, cold, wet, or windy it might be!

Date:

Astronomy

Oct. 10, 2011 Rise Set
Actual Time 6:51 AM EDT 6:11 PM EDT
Civil Twilight 6:23 AM EDT 6:39 PM EDT
Nautical Twilight 5:50 AM EDT 7:11 PM EDT
Astronomical Twilight 5:18 AM EDT 7:44 PM EDT
Moon 5:13 PM EDT (10/10) 5:29 AM EDT (10/10)
Length of Visible Light 12h 16m
Length of Day
11h 20m
Waxing Gibbous, 98% of the Moon is Illuminated
Oct 10
Waxing Gibbous
Oct 11
Full
Oct 19
Last Quarter
Oct 26
New
Nov 2
First Quarter

Hourly Weather History & Observations

Time (EDT) Temp. Heat Index Dew Point Humidity Pressure Visibility Wind Dir Wind Speed Gust Speed Precip Events Conditions
12:53 AM 55.0 °F - 52.0 °F 89% 30.21 in 6.0 mi Calm Calm - N/A   Clear
1:24 AM 51.8 °F - 48.2 °F 88% 30.21 in 1.5 mi Calm Calm - N/A   Clear
1:38 AM 51.8 °F - 48.2 °F 88% 30.20 in 0.8 mi Calm Calm - N/A   Mist
1:50 AM 53.6 °F - 50.0 °F 88% 30.20 in 1.5 mi Calm Calm - N/A   Partly Cloudy
1:53 AM 52.0 °F - 50.0 °F 93% 30.20 in 2.5 mi Calm Calm - N/A   Partly Cloudy
2:01 AM 51.8 °F - 48.2 °F 88% 30.20 in 9.0 mi Calm Calm - N/A   Partly Cloudy
2:09 AM 51.8 °F - 48.2 °F 88% 30.20 in 1.8 mi Calm Calm - N/A   Clear
2:11 AM 50.0 °F - 48.2 °F 94% 30.20 in 0.8 mi Calm Calm - N/A   Mist
2:23 AM 51.8 °F - 48.2 °F 88% 30.20 in 1.2 mi Calm Calm - N/A   Partly Cloudy
2:25 AM 51.8 °F - 48.2 °F 88% 30.20 in 3.0 mi Calm Calm - N/A   Partly Cloudy
2:29 AM 51.8 °F - 48.2 °F 88% 30.20 in 1.5 mi Calm Calm - N/A   Partly Cloudy
2:45 AM 51.8 °F - 48.2 °F 88% 30.19 in 2.5 mi Calm Calm - N/A   Clear
2:53 AM 48.9 °F - 46.9 °F 93% 30.19 in 5.0 mi Calm Calm - N/A   Clear
2:58 AM 50.0 °F - 46.4 °F 87% 30.19 in 1.5 mi Calm Calm - N/A   Clear
3:06 AM 50.0 °F - 48.2 °F 94% 30.19 in 0.8 mi Calm Calm - N/A   Clear
3:10 AM 50.0 °F - 46.4 °F 87% 30.19 in 2.5 mi Calm Calm - N/A   Clear
3:17 AM 48.2 °F - 46.4 °F 93% 30.18 in 10.0 mi Calm Calm - N/A   Clear
3:40 AM 50.0 °F - 46.4 °F 87% 30.18 in 2.5 mi Calm Calm - N/A   Partly Cloudy
3:45 AM 48.2 °F - 46.4 °F 93% 30.18 in 1.0 mi Calm Calm - N/A   Mist
3:53 AM 48.9 °F - 46.0 °F 90% 30.18 in 0.2 mi Calm Calm - N/A Fog Fog
4:32 AM 46.4 °F - 44.6 °F 93% 30.19 in 2.0 mi Calm Calm - N/A   Mostly Cloudy
4:39 AM 48.2 °F - 44.6 °F 87% 30.19 in 4.0 mi Calm Calm - N/A   Mostly Cloudy
4:41 AM 48.2 °F - 46.4 °F 93% 30.19 in 1.2 mi Calm Calm - N/A   Mostly Cloudy
4:49 AM 48.2 °F - 46.4 °F 93% 30.19 in 0.2 mi Calm Calm - N/A Fog Fog
4:53 AM 48.9 °F - 46.0 °F 90% 30.19 in 0.2 mi Calm Calm - N/A Fog Fog
5:53 AM 48.0 °F - 46.0 °F 93% 30.20 in 0.2 mi Calm Calm - N/A Fog Fog
6:02 AM 48.2 °F - 44.6 °F 87% 30.20 in 1.2 mi Calm Calm - N/A   Scattered Clouds
6:10 AM 48.2 °F - 44.6 °F 87% 30.19 in 10.0 mi Calm Calm - N/A   Partly Cloudy
6:15 AM 46.4 °F - 44.6 °F 93% 30.19 in 0.8 mi Calm Calm - N/A   Mist
6:53 AM 46.0 °F - 45.0 °F 96% 30.19 in 0.2 mi Calm Calm - N/A Fog Fog
7:44 AM 48.2 °F - 48.2 °F 100% 30.19 in 1.5 mi Calm Calm - N/A   Partly Cloudy
7:53 AM 51.1 °F - 50.0 °F 96% 30.19 in 2.0 mi Calm Calm - N/A   Clear
8:01 AM 53.6 °F - 51.8 °F 94% 30.19 in 6.0 mi Calm Calm - N/A   Clear
8:53 AM 64.0 °F - 57.9 °F 80% 30.19 in 10.0 mi Calm Calm - N/A   Clear
9:53 AM 72.0 °F - 55.9 °F 57% 30.19 in 10.0 mi WSW 4.6 mph - N/A   Clear
10:53 AM 78.1 °F - 55.0 °F 45% 30.17 in 10.0 mi NW 9.2 mph - N/A   Clear
11:53 AM 80.1 °F 80.1 °F 55.0 °F 42% 30.15 in 10.0 mi NNW 6.9 mph - N/A   Clear
12:53 PM 82.0 °F 81.4 °F 55.0 °F 39% 30.13 in 10.0 mi NW 9.2 mph - N/A   Clear
1:53 PM 82.9 °F 82.4 °F 57.0 °F 41% 30.11 in 10.0 mi West 8.1 mph - N/A   Clear
2:53 PM 84.0 °F 83.3 °F 57.0 °F 40% 30.09 in 10.0 mi NNW 5.8 mph - N/A   Clear
3:53 PM 84.0 °F 83.3 °F 57.0 °F 40% 30.09 in 10.0 mi NW 8.1 mph - N/A   Clear
4:53 PM 82.0 °F 82.0 °F 57.9 °F 44% 30.08 in 10.0 mi West 5.8 mph - N/A   Clear
5:53 PM 78.1 °F - 59.0 °F 52% 30.08 in 10.0 mi West 5.8 mph - N/A   Clear
6:53 PM 66.9 °F - 61.0 °F 81% 30.09 in 10.0 mi Calm Calm - N/A   Clear
7:53 PM 72.0 °F - 57.0 °F 59% 30.10 in 10.0 mi Calm Calm - N/A   Clear
8:53 PM 68.0 °F - 57.9 °F 70% 30.11 in 10.0 mi North 3.5 mph - N/A   Clear
9:53 PM 61.0 °F - 55.9 °F 83% 30.12 in 10.0 mi Calm Calm - N/A   Clear
10:53 PM 57.0 °F - 53.1 °F 87% 30.14 in 8.0 mi Calm Calm - N/A   Clear
11:53 PM 53.1 °F - 51.1 °F 93% 30.16 in 4.0 mi Calm Calm - N/A   Clear
11:55 PM 51.8 °F - 50.0 °F 94% 30.16 in 1.5 mi Calm Calm - N/A   Clear